Temp
13 14 14 14 15 15 15 16 16 17 17 18 18 19 20 20 20 20 20 21 21 22 22 24 24 24 26 25 24 24 25 26 27 28 29 30 28 28 26 25 25 23 22 22 22 22 21
13 14 14 14 15 15 16 16 17 17 18 18 18 19 20 20 20 20 20 21 22 22 23 24 25 26 26 23 24 24 25 26 28 28 28 29 28 28 26 25 25 23 22 22 21 21 20
14 14 14 15 15 15 16 17 17 17 18 18 18 19 20 20 20 21 21 21 21 22 23 23 23 24 24 24 24 25 25 25 26 27 27 26 27 27 25 23 24 23 21 22 22 21 20
14 14 14 15 15 16 16 17 17 17 18 18 19 19 20 20 20 21 21 21 22 23 23 24 24 24 23 23 24 25 25 25 25 25 25 26 26 26 25 24 23 23 24 23 22 22 19
14 14 14 15 15 15 16 16 17 18 18 18 18 19 20 20 20 21 22 22 22 23 24 24 24 26 24 24 24 24 24 26 26 26 26 26 26 24 24 25 24 26 26 25 21 22 21
14 14 15 15 15 16 16 16 17 18 18 18 18 19 20 20 20 21 22 22 23 24 24 25 27 25 25 24 25 25 25 25 26 27 27 27 28 26 25 27 23 23 24 25 24 22 22
15 15 15 15 15 16 16 16 17 18 18 18 19 19 19 20 21 21 22 23 25 26 25 25 25 25 25 25 25 26 26 27 28 28 26 27 24 22 22 23 24 24 25 24 24 21 20
14 15 15 15 15 16 16 16 17 18 18 19 19 19 20 21 21 22 21 25 24 25 24 26 26 25 25 26 26 25 26 28 28 26 27 25 21 22 24 24 23 24 23 22 23 22 21
14 14 15 15 15 15 16 16 17 17 18 19 19 20 20 21 22 23 23 23 23 22 26 25 26 25 25 26 24 24 26 26 26 26 25 23 21 22 23 23 22 22 20 20 21 22 23
14 14 14 15 15 15 16 16 17 17 18 19 19 20 21 21 22 24 23 22 22 21 25 25 26 26 26 26 24 24 24 25 25 24 25 22 21 22 24 23 21 23 20 20 21 22 22
14 14 13 14 15 15 15 16 16 17 18 18 19 20 21 21 21 24 22 21 21 21 25 26 26 25 27 26 25 25 24 26 24 24 24 22 23 22 23 21 20 21 20 20 21 21 22
13 13 13 14 15 15 15 15 16 17 17 18 18 19 20 21 21 20 20 20 20 23 23 25 26 26 26 26 25 25 25 25 24 25 24 23 22 22 21 21 21 21 22 22 21 21 20
13 13 13 13 14 15 15 15 16 16 17 17 18 19 20 19 21 19 20 22 23 20 26 26 26 27 26 26 26 26 25 25 25 24 25 24 23 22 21 22 22 23 22 24 22 21 20
12 13 13 14 14 15 15 15 15 16 16 17 18 18 18 18 18 19 20 24 15 27 27 27 27 26 26 26 25 25 26 26 25 24 25 25 24 22 21 20 19 21 21 19 18 20 20
12 11 13 13 13 14 15 15 16 16 16 17 18 19 19 18 19 18 23 18 24 26 27 26 26 26 26 26 25 25 25 25 23 23 22 22 22 20 20 20 20 20 20 20 18 20 19
10 11 12 12 13 13 14 15 16 16 16 17 17 21 21 20 19 19 24 22 25 26 26 27 26 26 27 26 25 25 25 23 23 22 22 23 22 22 20 19 19 20 19 19 19 18 18
8 10 11 12 13 13 14 15 16 16 17 17 17 23 18 19 19 23 22 25 25 25 25 25 26 26 26 26 25 26 25 22 22 22 22 22 22 21 20 20 22 20 21 19 18 19 18
7 8 9 10 12 13 14 14 16 16 17 17 21 23 19 19 23 25 25 25 16 25 24 25 24 25 25 25 25 25 24 23 21 21 21 20 19 20 23 21 21 20 20 20 18 19 19
7 8 8 9 10 13 14 14 14 16 17 15 23 23 19 19 14 19 23 24 24 24 25 24 24 24 24 24 23 24 24 20 20 20 19 19 20 20 20 20 20 20 21 20 20 18 15
7 7 7 8 9 11 13 14 14 15 16 16 23 19 22 22 24 23 24 24 23 22 24 24 24 23 23 23 24 23 23 19 19 20 14 16 19 19 19 21 22 20 22 21 19 16 17
7 7 7 8 8 10 12 13 14 15 16 16 23 22 22 12 21 23 24 24 24 23 22 23 23 23 23 23 24 23 24 19 18 14 17 17 18 20 21 21 21 20 21 21 19 16 16
7 7 7 7 8 9 10 13 14 14 16 17 21 22 22 23 22 23 19 23 23 25 24 23 22 24 24 22 23 23 23 23 22 17 18 18 17 19 19 21 17 20 21 21 21 20 15
7 7 7 7 7 8 9 11 13 14 15 21 21 21 21 19 23 22 23 23 24 24 24 24 23 23 23 22 22 22 22 21 21 20 18 18 18 18 18 21 19 18 22 22 21 21 17
7 7 7 7 7 7 8 9 11 13 13 12 17 18 21 20 23 24 24 23 23 23 22 23 22 21 20 21 21 21 20 20 20 20 21 19 18 18 17 19 15 22 25 23 21 23 22
7 7 7 7 7 7 7 9 10 12 13 13 16 17 20 20 22 24 24 23 23 22 21 22 22 19 20 20 20 20 20 20 20 20 20 18 18 17 16 18 20 22 23 22 21 21 24
6 7 7 7 7 7 8 8 9 10 12 14 14 13 16 18 20 22 22 23 22 22 21 20 18 17 18 19 20 15 18 21 20 19 19 19 17 17 17 16 17 23 23 22 22 19 24
7 7 7 7 7 7 7 7 8 9 10 11 13 13 15 16 19 21 21 21 22 22 21 20 17 16 17 18 16 17 18 22 20 20 16 16 16 15 15 16 18 22 23 22 19 21 24
6 7 7 6 7 7 7 7 8 8 9 10 12 12 13 15 17 19 19 19 21 20 20 18 17 17 17 16 18 17 18 20 21 21 21 18 16 16 17 16 16 23 21 19 22 23 23
6 7 7 7 6 7 7 7 7 8 8 9 12 12 12 13 15 16 16 16 17 18 17 18 18 19 18 17 18 19 18 19 19 18 22 20 20 19 18 19 21 23 22 22 22 21 22
Height
830 829 829 829 829 829 830 830 831 831 830 829 828 827 825 824 822 821 819 816 813 812 810 807 805 802 802 805 815 813 806 799 795 792 790 788 792 796 808 812 818 830 836 838 840 843 846
833 833 833 832 832 832 832 833 833 832 832 831 830 829 827 826 824 823 821 820 817 815 813 810 805 803 805 813 817 815 810 803 798 796 796 794 796 799 807 815 818 832 837 842 845 848 848
836 835 835 835 835 834 835 835 835 834 834 833 832 831 829 828 826 825 824 822 820 818 815 813 812 811 809 822 820 817 815 811 807 804 803 805 804 804 817 826 826 833 842 840 843 847 851
839 838 837 837 837 837 837 837 836 836 836 835 834 832 830 829 828 827 826 824 822 820 817 815 813 814 821 825 822 818 817 815 813 811 811 810 809 810 817 825 830 830 830 835 843 842 851
841 841 840 840 839 839 838 838 838 838 838 837 836 834 833 831 829 828 826 824 822 821 818 815 814 814 825 824 823 822 820 817 815 814 813 813 811 818 824 823 829 820 824 827 845 840 843
843 842 842 842 841 840 840 839 839 839 839 839 838 836 835 834 832 830 827 825 822 820 817 816 814 819 826 829 824 822 822 819 815 811 810 809 808 819 822 811 841 839 832 824 834 841 841
846 845 843 843 843 842 841 841 840 840 840 840 839 838 837 835 834 832 828 825 824 825 822 822 824 825 827 826 825 822 820 815 811 809 823 816 832 847 844 838 832 830 828 830 829 841 847
847 847 846 844 844 844 844 843 842 842 842 841 840 839 838 836 834 831 829 824 828 829 833 826 827 828 828 826 825 826 817 814 814 825 818 826 850 848 835 835 837 835 840 842 833 839 845
849 848 847 846 846 845 845 845 844 843 842 842 841 840 839 838 835 834 833 833 832 832 826 831 828 830 831 830 834 833 827 823 823 827 831 838 852 845 839 838 842 843 855 852 848 837 829
852 850 849 847 847 846 845 845 844 844 843 842 842 841 840 838 839 835 836 836 835 834 831 835 829 830 828 828 837 834 832 830 829 837 834 846 849 845 835 841 850 839 852 850 844 841 842
855 853 850 849 848 847 846 846 846 845 844 843 842 842 842 841 839 836 841 838 837 836 849 832 832 831 827 831 834 834 834 826 836 837 838 852 845 847 844 855 852 849 849 850 847 845 839
857 855 853 851 850 848 847 846 846 846 845 844 843 842 842 842 842 842 840 838 838 843 860 837 828 831 830 830 833 832 833 831 834 834 836 843 845 848 853 848 847 843 839 834 840 842 849
859 857 855 853 851 850 848 848 847 847 847 845 844 843 844 843 842 842 839 837 846 868 832 838 833 829 831 835 835 834 835 836 840 847 839 841 844 849 851 843 841 838 834 829 842 846 848
862 860 857 855 852 851 850 848 848 847 847 847 846 844 844 844 842 841 840 838 893 832 830 825 829 833 835 834 837 837 835 834 835 841 838 837 846 851 853 860 864 851 851 865 874 854 848
865 862 860 857 855 853 851 850 849 848 848 848 847 845 845 843 842 842 840 869 847 832 825 832 832 837 835 837 841 837 837 841 849 848 857 853 852 855 858 857 860 855 860 860 869 850 858
867 865 862 860 858 855 853 852 851 849 849 848 847 845 843 843 842 843 840 852 837 833 831 828 839 832 833 834 841 838 838 847 850 853 850 850 858 850 858 859 859 859 861 866 863 871 866
869 867 865 862 860 857 854 852 852 850 849 848 847 840 844 843 843 839 847 837 835 834 834 837 836 837 833 838 839 837 841 853 852 853 853 852 856 855 854 856 848 857 853 860 864 862 867
872 870 867 864 862 859 857 854 852 851 849 849 844 840 843 844 842 828 835 832 848 835 836 836 839 838 839 837 839 840 844 849 857 857 859 862 864 863 841 848 849 852 854 853 869 859 859
873 871 869 866 863 861 859 856 854 853 852 849 837 837 844 844 870 853 838 838 838 839 836 838 839 839 839 843 850 841 844 861 861 859 865 866 862 865 859 856 851 852 848 852 854 862 873
875 873 871 868 865 862 860 857 855 854 854 853 840 850 841 842 835 838 838 839 843 842 840 838 839 841 843 845 839 846 847 861 863 862 875 873 864 865 865 851 843 847 840 842 854 870 855
876 875 873 870 867 863 861 859 856 854 853 855 840 841 840 870 846 838 836 835 837 844 843 841 840 842 842 849 840 843 840 860 864 874 870 869 868 855 848 842 839 840 837 835 843 855 860
877 875 874 871 868 865 862 861 858 855 853 854 845 842 841 837 840 840 846 841 839 832 837 842 847 835 837 846 842 844 840 843 849 867 866 864 868 857 853 835 846 837 828 827 825 829 847
878 876 875 873 870 867 864 862 860 857 855 849 846 846 846 846 837 841 839 837 834 833 831 835 838 839 840 841 840 840 843 846 845 852 863 861 863 859 856 834 840 841 815 811 819 816 831
878 876 875 873 872 870 866 863 861 861 859 858 856 854 845 847 836 832 831 833 834 834 840 837 842 844 848 845 844 845 846 846 845 846 846 853 858 858 860 847 869 813 794 802 812 804 805
878 876 876 874 871 870 869 865 863 862 861 860 858 857 848 846 836 830 830 834 832 835 841 840 841 850 849 848 850 846 844 845 838 840 844 853 859 861 864 851 831 810 798 806 811 809 791
877 875 876 875 873 871 868 867 864 862 861 860 861 859 857 851 841 835 833 831 837 836 840 844 851 853 853 851 849 872 856 837 840 847 846 850 857 859 855 859 849 804 797 800 801 818 782
875 874 874 874 873 872 870 867 865 863 862 861 860 860 858 854 842 837 837 838 830 832 835 838 850 855 854 852 861 861 850 827 837 836 854 859 858 863 861 856 832 799 792 801 823 806 786
871 872 871 873 872 871 870 869 865 864 863 862 861 860 860 856 846 841 840 840 837 837 838 843 850 850 855 858 850 852 844 831 827 822 824 842 851 849 848 848 842 787 802 811 792 785 785
868 868 868 869 870 869 870 870 868 864 863 862 862 860 860 859 850 846 844 841 840 841 842 838 839 837 842 849 844 837 837 832 830 835 810 826 822 823 825 814 795 788 788 787 786 786 783
Wind_Speed
13 12 11 11 11 10 9 9 8 7 7 7 8 10 10 11 11 11 16 19 14 14 11 13 7 3 13 15 13 17 19 17 4 11 12 6 11 10 14 18 19 17 15 14 12 11 8
12 12 11 10 10 9 9 8 7 7 7 6 7 9 9 8 9 8 10 12 13 14 20 25 29 9 15 22 12 15 18 16 21 14 17 17 17 13 10 8 6 13 14 12 10 10 3
12 11 10 10 9 9 8 7 6 6 6 7 8 9 8 6 4 7 12 7 8 13 14 14 6 22 27 12 10 13 14 19 19 17 14 6 3 4 13 16 16 16 14 12 8 3 5
11 11 10 9 9 8 7 5 4 5 6 7 9 9 8 5 3 3 7 11 9 13 5 6 15 18 9 10 10 10 14 16 16 13 16 17 17 12 7 15 11 12 11 6 7 3 5
11 10 9 9 8 7 6 5 4 5 6 7 10 9 7 12 13 6 5 4 5 8 6 6 3 9 7 7 12 9 7 8 8 6 7 8 10 11 11 9 8 7 7 6 7 3 0
10 9 9 8 8 7 6 5 5 5 4 6 9 10 0 2 4 6 6 4 11 13 7 6 4 11 7 7 8 5 3 2 4 3 10 8 3 11 12 10 7 9 9 8 7 5 3
11 9 8 7 7 7 6 5 4 3 2 4 6 9 9 5 9 12 17 13 4 8 22 18 13 14 6 13 11 11 3 3 3 4 10 14 12 12 13 10 6 9 8 9 7 5 5
12 10 7 6 5 6 6 4 4 2 0 2 5 7 9 8 7 5 8 5 8 6 9 12 15 13 7 2 7 15 18 4 1 6 6 11 13 8 4 10 4 8 11 9 2 2 2
13 12 9 6 4 4 4 4 3 2 1 3 4 7 8 7 7 11 13 10 9 9 2 5 6 7 4 10 8 11 13 5 6 9 12 15 5 3 4 10 13 10 9 7 6 12 8
14 14 12 8 5 4 3 3 4 3 3 3 5 6 8 9 5 4 6 10 9 7 4 5 1 4 3 1 4 7 9 3 3 6 5 6 2 5 7 8 10 2 10 7 7 9 6
14 15 15 11 7 5 3 2 3 4 3 4 5 6 6 10 9 4 8 9 8 3 3 2 5 1 4 4 1 4 8 4 9 6 3 3 3 7 8 6 7 5 7 7 6 8 9
13 14 16 14 9 7 4 2 1 4 4 3 5 4 3 3 2 5 8 9 5 3 3 4 3 3 4 5 4 1 1 2 1 2 7 6 2 3 6 7 6 11 13 16 8 6 6
12 13 15 16 12 9 6 3 1 2 4 3 3 4 4 5 4 9 9 7 2 3 0 5 4 2 2 2 3 3 4 7 7 6 1 8 5 4 6 10 3 13 16 3 5 5 2
12 12 13 14 14 10 7 4 1 0 3 2 3 3 2 2 5 7 5 3 6 4 2 5 3 3 3 3 5 1 3 3 10 11 10 7 3 6 7 5 5 8 7 3 4 6 8
12 13 12 13 14 12 9 6 2 1 2 1 1 2 2 5 4 4 4 3 3 10 5 2 4 4 5 3 4 2 2 5 7 10 7 7 3 5 5 3 5 6 4 4 4 8 5
15 14 13 13 14 13 11 7 4 2 2 2 5 4 2 4 3 2 5 1 1 3 5 4 5 0 6 6 3 1 2 3 3 6 6 4 4 1 3 3 3 2 3 2 2 5 5
18 16 14 13 13 14 13 9 5 2 2 2 4 3 1 2 1 4 4 3 1 1 4 3 3 4 3 3 3 4 3 4 2 3 5 6 2 3 3 6 4 3 3 2 2 3 3
18 19 18 16 14 14 15 14 7 3 2 4 5 2 0 1 4 4 4 3 4 3 2 2 3 4 4 5 4 2 2 5 4 4 4 4 4 5 6 6 3 2 5 3 2 2 5
16 18 19 18 16 14 14 15 11 6 5 8 3 3 1 1 1 2 2 2 3 3 4 3 3 1 3 3 3 2 3 3 3 2 4 5 2 6 6 3 4 3 2 4 6 2 6
15 16 18 19 18 16 13 13 13 7 5 7 4 1 3 4 4 5 5 7 6 1 5 3 4 1 4 6 6 3 3 4 2 2 3 2 3 6 6 12 13 12 12 9 7 4 4
11 14 17 19 20 18 14 13 13 8 3 5 4 2 2 2 4 6 4 6 7 5 5 4 4 9 7 5 7 8 6 7 5 6 2 2 5 9 13 17 18 16 17 15 14 12 6
9 12 14 17 18 19 18 14 14 12 3 3 4 4 2 4 1 5 3 6 9 7 5 6 8 8 4 9 9 11 4 4 7 7 4 6 4 10 13 16 2 12 17 14 16 14 17
8 9 12 15 17 18 18 16 13 14 5 5 4 4 4 1 4 6 7 7 5 5 2 7 8 7 9 4 8 8 4 6 7 6 8 5 4 6 5 10 10 11 8 12 11 11 7
8 8 9 12 15 17 17 17 13 12 11 4 7 7 4 6 7 7 6 5 8 5 8 0 2 7 4 2 2 2 6 9 10 10 10 7 7 5 6 11 2 8 5 3 7 13 14
10 9 9 10 11 14 16 16 14 9 8 6 6 6 4 5 9 9 9 7 6 2 5 6 2 5 4 2 4 7 6 7 9 13 11 6 8 4 3 6 14 15 1 3 4 7 11
12 10 11 11 11 12 13 16 15 11 8 3 4 5 6 4 4 8 9 7 7 7 6 2 4 3 2 3 3 1 4 7 5 5 0 6 7 6 4 4 4 5 6 2 1 5 5
14 12 12 11 10 11 12 12 14 14 10 7 3 6 4 4 8 8 3 6 3 6 4 5 5 3 4 3 2 3 6 8 5 7 7 5 6 11 8 5 8 13 5 5 2 2 1
16 14 13 13 11 10 10 12 11 11 12 9 4 4 2 2 9 10 5 6 6 4 5 5 4 5 5 4 3 4 4 5 7 10 5 10 5 5 6 5 8 8 9 6 4 5 8
19 16 14 14 14 11 10 11 11 9 9 7 4 2 3 6 6 13 13 12 9 7 5 7 6 3 5 4 3 3 3 3 6 5 10 10 8 4 8 6 8 7 8 9 11 12 12
Wind_Direction
70 71 71 72 78 80 81 90 96 77 56 60 50 35 35 36 45 58 44 42 64 57 41 28 8 33 80 70 38 7 8 4 344 28 41 79 87 62 89 96 88 91 95 93 87 77 86
75 76 74 75 78 81 86 93 88 65 55 57 44 26 28 32 42 42 11 35 69 74 67 64 57 82 79 69 7 26 31 37 47 64 63 62 77 86 80 63 60 118 110 108 108 97 77
74 76 77 78 76 78 83 88 82 61 60 58 34 21 18 21 38 47 26 37 33 71 68 56 51 82 60 58 28 44 44 52 59 62 75 61 15 69 100 92 116 131 130 133 112 90 110
72 73 75 77 80 79 78 80 73 62 68 54 33 20 14 23 37 15 27 35 64 46 48 74 81 69 77 38 42 44 61 61 60 66 78 75 82 89 80 122 154 174 186 162 118 193 130
74 71 70 72 73 73 73 76 77 81 78 46 34 30 65 76 72 78 60 15 331 342 355 339 292 81 65 39 48 37 25 36 37 75 82 124 115 113 147 176 184 194 49 39 132 86 253
65 69 68 64 62 61 65 72 82 95 79 46 35 33 4 36 47 25 22 22 343 0 254 277 2 113 43 51 25 64 1 328 290 210 173 207 109 54 32 43 44 18 6 15 66 92 333
47 50 63 61 57 54 59 67 78 103 86 37 29 23 27 332 313 303 305 301 222 58 59 59 71 91 120 105 51 29 6 309 209 38 78 55 72 42 34 24 22 14 348 22 52 65 324
49 42 42 59 60 52 50 57 64 77 342 355 8 11 11 43 21 328 327 48 52 31 71 80 90 83 66 11 45 17 357 65 151 78 121 118 62 17 347 31 16 29 11 3 146 161 270
49 43 37 40 56 65 49 43 41 31 340 317 341 355 1 356 21 66 56 44 16 356 193 83 79 67 51 55 42 20 0 355 26 62 55 60 60 336 345 37 351 73 12 329 317 314 255
45 42 38 35 35 40 47 29 25 19 349 314 317 332 346 335 323 355 46 1 355 353 222 120 156 68 23 350 74 18 349 319 70 29 23 67 85 330 351 45 355 29 5 309 303 327 353
44 40 36 37 33 28 31 18 4 9 7 342 321 317 338 21 327 25 351 339 336 295 207 54 90 1 87 56 123 86 9 38 50 41 286 84 17 355 21 3 344 3 317 301 317 306 296
41 37 35 33 34 23 20 32 4 356 2 16 360 340 345 333 345 1 325 324 308 239 69 118 117 133 168 55 54 146 80 87 22 303 58 103 93 17 2 305 261 289 272 236 230 252 244
39 36 33 31 30 26 21 16 36 358 352 7 33 38 18 345 347 331 327 294 314 76 130 131 133 183 50 85 113 4 6 45 26 320 231 159 113 107 335 328 205 343 342 49 222 209 11
34 32 32 30 31 26 21 20 21 23 350 348 33 60 33 19 323 327 315 252 76 21 64 42 144 149 316 358 124 89 265 153 57 351 305 337 192 11 26 40 319 321 345 32 301 342 313
33 30 27 27 28 24 23 12 8 355 341 328 343 334 258 298 333 335 266 44 261 3 47 171 173 252 146 157 309 283 57 31 40 21 7 352 82 128 59 352 341 348 33 345 277 255 266
32 28 23 22 22 23 20 10 357 345 344 305 309 254 134 301 327 286 247 234 301 5 317 278 276 58 330 120 253 255 82 33 69 28 357 25 299 59 106 234 168 339 335 229 228 316 317
32 28 22 20 17 16 18 14 350 321 315 299 284 239 91 266 317 233 231 232 152 92 323 315 317 294 303 336 321 322 37 83 30 55 322 348 269 148 208 192 3 185 205 201 234 263 306
30 26 23 20 17 12 11 11 1 320 286 268 273 238 62 108 237 243 255 13 358 172 215 214 297 299 291 355 297 260 349 63 31 353 2 52 313 283 348 76 14 308 303 271 287 58 282
29 26 23 20 16 13 11 12 11 342 320 324 259 69 102 218 107 291 129 193 284 222 229 187 254 277 51 290 282 226 98 67 89 316 11 3 260 297 150 164 169 213 266 239 265 138 243
26 21 18 18 16 13 9 11 11 4 316 329 282 121 134 218 290 291 221 237 204 293 289 272 283 328 235 250 226 259 185 127 149 59 56 332 262 255 272 296 301 296 281 223 221 253 287
20 17 16 15 13 13 9 4 7 3 324 326 256 303 36 247 284 248 304 313 237 187 227 223 229 241 244 255 263 239 240 148 173 149 215 249 267 271 280 291 291 280 276 264 238 211 236
4 12 10 13 13 11 10 4 359 358 322 261 312 336 168 292 292 260 183 269 259 254 181 224 243 292 245 252 263 300 315 239 255 155 209 187 276 307 292 288 330 281 273 262 255 240 225
343 355 2 6 9 10 10 10 3 359 354 278 47 261 288 328 212 245 238 238 274 283 214 273 319 272 264 322 5 13 345 311 297 199 200 224 258 322 271 319 304 284 272 234 232 234 212
317 331 346 359 2 5 7 10 12 6 5 318 358 301 275 270 261 249 245 268 272 243 265 170 295 267 67 18 5 270 253 256 254 243 244 250 241 262 288 304 291 252 274 235 256 258 223
298 307 318 338 355 359 0 5 10 9 356 340 332 307 298 269 279 272 244 254 260 229 261 279 180 38 344 301 279 258 233 238 242 225 220 213 262 267 260 285 291 284 83 176 216 275 267
289 291 299 313 332 348 355 357 3 3 358 339 342 321 288 302 253 343 311 283 243 232 200 194 93 24 308 272 237 218 245 242 166 156 149 208 232 257 222 248 263 260 124 85 1 267 108
277 280 285 291 309 326 340 350 357 360 353 338 322 338 289 274 277 283 287 307 241 269 257 111 144 181 236 233 175 254 251 260 243 219 177 188 213 226 236 258 271 262 239 139 237 40 122
270 273 275 281 286 302 322 333 349 355 358 345 318 312 302 264 293 294 286 269 274 274 253 112 135 210 182 233 213 216 250 265 247 260 217 182 196 201 215 236 253 230 136 205 258 338 321
264 263 266 270 274 281 299 317 328 348 352 342 282 332 296 248 267 313 282 276 279 313 320 166 205 159 202 210 245 283 280 273 268 263 260 230 209 223 199 225 240 191 246 241 257 261 283